Flag for Germany Weather past 2 weeks in Erding, Bavaria, Germany

Now
64 °F

Mild.


Feels Like: 64 °F
Forecast: 51 / 64 °F
Wind: 2 mph from North

Location: Erding Airport

Current Time: Oct 1, 2014 at 3:10:00 PM

Latest Report: Oct 1, 2014 at 2:20 PM


Visibility: 3 mi

Pressure: 30.30 "Hg

Humidity: 83%

Dew point: 59 °F

Location of ErdingLocation

Historic Weather in Erding — Graph

°F

Erding temperature yesterday

Maximum temperature yesterday: 66 °F (at 2:20 PM)
Minimum temperature yesterday: 48 °F (at 1:20 AM)
Average temperature yesterday: 57 °F

Past Weeks' High & Low Weather Summary

 TemperatureHumidityPressure
High77 °F (Sep 19, 3:20 PM)100% (Sep 16, 8:20 PM)30.39 "Hg (Sep 16, 8:20 PM)
Low36 °F (Sep 24, 7:20 AM)51% (Sep 23, 3:20 PM)29.89 "Hg (Sep 24, 4:20 PM)
Average57 °F88%30.14 "Hg
* Reported Sep 16 1:20 PM — Oct 1 1:20 PM, Erding, Weather by CustomWeather, © 2014

Note: Actual official high and low records may vary slightly from our data, if they occured in-between our weather recording intervals... More about our weather records

Advertising

Erding weather history for previous 24 hours

 ConditionsComfort  
Time TempWeatherWind HumidityBarometerVisibility
1:20 PM
Oct 1
63 °FMild.2 mph88%30.30 "Hg2 mi
12:20 PM61 °FCool.3 mph94%30.30 "Hg2 mi
11:20 AM61 °FCool.3 mph94%30.30 "Hg2 mi
10:20 AM61 °FCool.3 mph94%30.30 "Hg2 mi
9:20 AM59 °FCool.2 mph100%30.30 "Hg1 mi
8:20 AM57 °FCool.2 mph100%30.30 "Hg1 mi
7:20 AM57 °FCool.2 mph100%30.30 "Hg1 mi
6:20 AM57 °FCool.1 mph100%30.30 "Hg1 mi
5:20 AM57 °FCool.1 mph100%30.30 "Hg1 mi
4:20 AM57 °FCool.1 mph100%30.30 "Hg1 mi
3:20 AM57 °FCool.2 mph100%30.30 "Hg1 mi
2:20 AM59 °FCool.2 mph100%30.30 "Hg1 mi
1:20 AM59 °FCool.2 mph100%30.30 "Hg1 mi
12:20 AM59 °FCool.2 mph100%30.30 "Hg1 mi
11:20 PM
Sep 30
59 °FCool.2 mph100%30.30 "Hg1 mi
10:20 PM61 °FCool.2 mph100%30.33 "Hg1 mi
9:20 PM61 °FCool.2 mph100%30.30 "Hg2 mi
8:20 PM61 °FCool.3 mph100%30.30 "Hg2 mi
7:20 PM61 °FCool.2 mph100%30.30 "Hg2 mi
6:20 PM63 °FMild.3 mph94%30.30 "Hg2 mi
5:20 PM66 °FMild.3 mph83%30.30 "Hg2 mi
4:20 PM64 °FPartly sunny.5 mph83%30.30 "HgN/A
3:20 PM64 °FPartly sunny.3 mph78%30.30 "HgN/A
Weather by CustomWeather, © 2014

See weather overviewHow to use our weather pages